| time (UTC) | temp F | wind direction | speed knots | gust knots | rain 1hr in | rain 24hr in | rain mn in | humidity % | barometer mb |
| 20260906044559 | 60 | 337 | 2.6 | 5.2 | 0.00 | 0.00 | 0.00 | 74 | 1016.0 |
| 20260906043106 | 60 | 360 | 2.6 | 4.3 | 0.00 | 0.00 | 0.00 | 72 | 1016.2 |
| 20260906041601 | 60 | 347 | 2.6 | 4.3 | 0.00 | 0.00 | 0.00 | 71 | 1016.2 |
| 20260906040121 | 60 | 350 | 1.7 | 5.2 | 0.00 | 0.00 | 0.00 | 70 | 1016.3 |
| 20260906034604 | 59 | 352 | 0.9 | 3.5 | 0.00 | 0.00 | 0.00 | 71 | 1016.1 |
| 20260906033100 | 60 | 360 | 0.9 | 2.6 | 0.00 | 0.00 | 0.00 | 70 | 1015.9 |
| 20260906031605 | 60 | 347 | 0.0 | 2.6 | 0.00 | 0.00 | 0.00 | 70 | 1015.8 |
| 20260906030105 | 61 | 352 | 0.0 | 1.7 | 0.00 | 0.00 | 0.00 | 69 | 1015.9 |
| 20260906024603 | 61 | 352 | 0.0 | 1.7 | 0.00 | 0.00 | 0.00 | 67 | 1015.7 |
| 20260906023103 | 62 | 352 | 2.6 | 3.5 | 0.00 | 0.00 | 0.00 | 64 | 1015.7 |
| 20260906021607 | 62 | 360 | 1.7 | 4.3 | 0.00 | 0.00 | 0.00 | 65 | 1015.6 |
| 20260906020106 | 62 | 15 | 1.7 | 2.6 | 0.00 | 0.00 | 0.00 | 64 | 1015.8 |
| 20260906014559 | 63 | 333 | 0.9 | 1.7 | 0.00 | 0.00 | 0.00 | 63 | 1015.9 |
| 20260906013055 | 63 | 336 | 0.9 | 4.3 | 0.00 | 0.00 | 0.00 | 63 | 1016.0 |
| 20260906011603 | 63 | 0 | 0.9 | 2.6 | 0.00 | 0.00 | 0.00 | 65 | 1015.8 |
| 20260906010108 | 64 | 352 | 1.7 | 3.5 | 0.00 | 0.00 | 0.00 | 62 | 1015.8 |
| 20260906004600 | 64 | 352 | 1.7 | 3.5 | 0.00 | 0.00 | 0.00 | 62 | 1015.9 |
| 20260906003100 | 65 | 13 | 0.9 | 2.6 | 0.00 | 0.00 | 0.00 | 65 | 1015.9 |
| 20260906001606 | 66 | 346 | 0.9 | 2.6 | 0.00 | 0.00 | 0.00 | 59 | 1015.9 |
| 20260905234606 | 67 | 352 | 1.7 | 3.5 | 0.00 | 0.00 | 0.00 | 61 | 1016.0 |
| 20260905233112 | 66 | 350 | 0.0 | 0.9 | 0.00 | 0.00 | 0.00 | 60 | 1015.9 |
| 20260905231607 | 65 | 235 | 0.9 | 1.7 | 0.00 | 0.00 | 0.00 | 59 | 1016.1 |
| 20260905230108 | 65 | 130 | 0.9 | 3.5 | 0.00 | 0.00 | 0.00 | 59 | 1016.2 |
| 20260905224601 | 66 | 205 | 0.9 | 7.0 | 0.00 | 0.01 | 0.00 | 58 | 1016.3 |
| 20260905223054 | 66 | 178 | 0.0 | 1.7 | 0.00 | 0.01 | 0.00 | 62 | 1016.3 |
| 20260905221603 | 65 | 0 | 0.9 | 2.6 | 0.00 | 0.01 | 0.00 | 60 | 1016.5 |
| 20260905220104 | 65 | 0 | 0.0 | 1.7 | 0.00 | 0.01 | 0.00 | 64 | 1016.6 |
| 20260905214603 | 64 | 24 | 1.7 | 2.6 | 0.00 | 0.35 | 0.00 | 65 | 1016.7 |
| 20260905213110 | 64 | 17 | 1.7 | 5.2 | 0.00 | 0.35 | 0.00 | 65 | 1016.7 |
| 20260905211555 | 65 | 46 | 1.7 | 3.5 | 0.00 | 0.35 | 0.00 | 63 | 1016.7 |
| 20260905210110 | 64 | 0 | 0.0 | 3.5 | 0.00 | 0.35 | 0.00 | 62 | 1016.8 |
| 20260905204600 | 66 | 321 | 0.9 | 3.5 | 0.00 | 0.35 | 0.00 | 66 | 1016.9 |
| 20260905203103 | 64 | 69 | 0.9 | 7.0 | 0.00 | 0.35 | 0.00 | 64 | 1017.0 |
| 20260905201610 | 65 | 42 | 1.7 | 6.1 | 0.00 | 0.35 | 0.00 | 67 | 1016.9 |
| 20260905200140 | 64 | 342 | 0.9 | 4.3 | 0.00 | 0.35 | 0.00 | 69 | 1017.0 |
| 20260905194610 | 63 | 14 | 1.7 | 6.1 | 0.00 | 0.35 | 0.00 | 72 | 1017.1 |
| 20260905193054 | 63 | 337 | 0.9 | 5.2 | 0.00 | 0.35 | 0.00 | 73 | 1017.2 |
| 20260905191600 | 63 | 53 | 3.5 | 7.0 | 0.00 | 0.35 | 0.00 | 73 | 1017.4 |
| 20260905184611 | 62 | 360 | 3.5 | 7.8 | 0.00 | 0.35 | 0.00 | 76 | 1017.5 |
| 20260905183107 | 61 | 10 | 3.5 | 8.7 | 0.00 | 0.35 | 0.00 | 78 | 1017.6 |
| 20260905181607 | 59 | 15 | 2.6 | 5.2 | 0.00 | 0.35 | 0.00 | 81 | 1017.7 |
| 20260905180112 | 60 | 342 | 1.7 | 5.2 | 0.00 | 0.35 | 0.00 | 80 | 1017.6 |
| 20260905174604 | 59 | 15 | 1.7 | 7.0 | 0.00 | 0.35 | 0.00 | 81 | 1017.6 |
| 20260905173056 | 60 | 15 | 3.5 | 7.8 | 0.00 | 0.35 | 0.00 | 81 | 1017.6 |
| 20260905171607 | 59 | 360 | 0.9 | 2.6 | 0.00 | 0.35 | 0.00 | 80 | 1017.6 |
| 20260905170104 | 58 | 86 | 1.7 | 7.0 | 0.00 | 0.35 | 0.00 | 84 | 1017.6 |
| 20260905164558 | 58 | 16 | 2.6 | 5.2 | 0.00 | 0.35 | 0.00 | 84 | 1017.6 |
| 20260905163102 | 57 | 344 | 2.6 | 5.2 | 0.00 | 0.35 | 0.00 | 83 | 1017.5 |
| 20260905161606 | 57 | 32 | 1.7 | 6.1 | 0.00 | 0.35 | 0.00 | 84 | 1017.6 |
| 20260905160058 | 55 | 31 | 0.9 | 3.5 | 0.00 | 0.35 | 0.00 | 87 | 1017.7 |
| 20260905154602 | 55 | 105 | 1.7 | 4.3 | 0.00 | 0.36 | 0.00 | 85 | 1017.6 |
| 20260905153100 | 55 | 96 | 1.7 | 5.2 | 0.00 | 0.36 | 0.00 | 86 | 1017.6 |
| 20260905151602 | 54 | 96 | 1.7 | 3.5 | 0.00 | 0.36 | 0.00 | 86 | 1017.7 |
| 20260905150059 | 54 | 5 | 0.0 | 1.7 | 0.00 | 0.36 | 0.00 | 87 | 1017.8 |
| 20260905144602 | 53 | 5 | 0.0 | 1.7 | 0.00 | 0.36 | 0.00 | 88 | 1017.6 |
| 20260905143105 | 52 | 0 | 0.0 | 1.7 | 0.00 | 0.36 | 0.00 | 91 | 1017.5 |
| 20260905141603 | 52 | 5 | 0.9 | 1.7 | 0.00 | 0.36 | 0.00 | 91 | 1017.4 |
| 20260905140106 | 51 | 29 | 0.9 | 1.7 | 0.00 | 0.36 | 0.00 | 90 | 1017.5 |
| 20260905134615 | 51 | 0 | 0.0 | 1.7 | 0.00 | 0.36 | 0.00 | 90 | 1017.4 |
| 20260905133102 | 51 | 0 | 0.0 | 1.7 | 0.00 | 0.36 | 0.00 | 90 | 1017.3 |
| 20260905131603 | 52 | 216 | 0.9 | 4.3 | 0.00 | 0.36 | 0.00 | 88 | 1017.3 |
| 20260905130110 | 53 | 157 | 0.9 | 1.7 | 0.00 | 0.36 | 0.00 | 87 | 1017.1 |
| 20260905124604 | 53 | 148 | 0.9 | 2.6 | 0.00 | 0.36 | 0.00 | 87 | 1016.9 |
| 20260905123108 | 53 | 171 | 0.9 | 2.6 | 0.00 | 0.36 | 0.00 | 87 | 1017.0 |
| 20260905121603 | 53 | 177 | 0.9 | 2.6 | 0.00 | 0.36 | 0.00 | 88 | 1017.0 |
| 20260905120104 | 53 | 0 | 0.0 | 0.9 | 0.00 | 0.36 | 0.00 | 87 | 1017.0 |
| 20260905114611 | 53 | 0 | 0.0 | 1.7 | 0.00 | 0.39 | 0.00 | 87 | 1016.9 |
| 20260905113100 | 53 | 0 | 0.0 | 1.7 | 0.00 | 0.39 | 0.00 | 85 | 1017.0 |
| 20260905111615 | 53 | 0 | 0.0 | 0.0 | 0.00 | 0.39 | 0.00 | 86 | 1016.8 |
| 20260905110108 | 53 | 0 | 0.0 | 0.0 | 0.00 | 0.39 | 0.00 | 86 | 1016.9 |
| 20260905104607 | 53 | 0 | 0.0 | 1.7 | 0.00 | 0.40 | 0.00 | 87 | 1016.8 |
| 20260905103101 | 53 | 232 | 0.0 | 1.7 | 0.00 | 0.40 | 0.00 | 89 | 1017.0 |
| 20260905101601 | 52 | 180 | 0.9 | 3.5 | 0.00 | 0.40 | 0.00 | 89 | 1017.0 |
| 20260905100107 | 53 | 183 | 1.7 | 2.6 | 0.00 | 0.40 | 0.00 | 89 | 1017.1 |
| 20260905094612 | 53 | 190 | 0.0 | 1.7 | 0.00 | 0.40 | 0.00 | 89 | 1017.0 |
| 20260905093102 | 53 | 308 | 0.9 | 1.7 | 0.00 | 0.40 | 0.00 | 88 | 1016.9 |
| 20260905091609 | 53 | 178 | 0.9 | 2.6 | 0.00 | 0.40 | 0.00 | 88 | 1016.7 |
| 20260905084609 | 54 | 196 | 1.7 | 1.7 | 0.00 | 0.40 | 0.00 | 88 | 1016.8 |
| 20260905083101 | 53 | 172 | 0.9 | 1.7 | 0.00 | 0.40 | 0.00 | 88 | 1016.6 |
| 20260905081616 | 54 | 137 | 0.0 | 1.7 | 0.00 | 0.40 | 0.00 | 89 | 1016.6 |
| 20260905074603 | 54 | 83 | 0.9 | 1.7 | 0.00 | 0.40 | 0.00 | 89 | 1016.6 |
| 20260905073130 | 54 | 170 | 0.0 | 1.7 | 0.00 | 0.40 | 0.00 | 90 | 1016.6 |
| 20260905071601 | 54 | 189 | 0.9 | 1.7 | 0.00 | 0.40 | 0.00 | 91 | 1016.5 |
| 20260905070055 | 54 | 217 | 0.0 | 1.7 | 0.00 | 0.40 | 0.00 | 90 | 1016.4 |
| 20260905064603 | 54 | 182 | 0.9 | 1.7 | 0.00 | 0.40 | 0.40 | 90 | 1016.3 |
| 20260905063114 | 54 | 217 | 0.0 | 1.7 | 0.00 | 0.40 | 0.40 | 90 | 1016.3 |
| 20260905061614 | 53 | 217 | 0.0 | 1.7 | 0.00 | 0.40 | 0.40 | 90 | 1016.1 |
| 20260905060053 | 54 | 227 | 0.0 | 2.6 | 0.00 | 0.40 | 0.40 | 88 | 1016.0 |
| 20260905054603 | 54 | 239 | 0.0 | 0.9 | 0.00 | 0.40 | 0.40 | 87 | 1016.1 |
| 20260905053059 | 54 | 239 | 0.0 | 0.9 | 0.00 | 0.40 | 0.40 | 88 | 1016.0 |
| 20260905051556 | 54 | 238 | 0.9 | 2.6 | 0.00 | 0.40 | 0.40 | 87 | 1016.1 |